[[{"header":{"parameterUnit":"m.s-1","parameterCategory":2,"la1":30.2991,"la2":30.254,"lo1":-89.0895,"lo2":-89.0444,"dy":0.0017,"dx":0.0017,"nx":28,"ny":28,"refTime":"2025-03-15T21:00:00:Z","depth":"0","parameterNumber":2,"parameterNumberName":"U-component_of_CURRENTS"},"data":[0,0,0,0,0,0,0,0,0,0,0,0,0,0,0,0,0,0,0,0,0,0,0,0,0,0,0,0,0,0,0,0,0,0,0,0,0,0,0,0,0,0,0,0,0,0,0,0,0,0,0,0,0,0,0,0,0,0,0.1829,0.183,0,0.1835,0.1835,0.1835,0.1815,0.1815,0.1814,0.1814,0.1821,0.1821,0.1822,0,0,0,0,0,0,0,0,0,0,0,0,0,0.1792,0.1793,0.1829,0.183,0.183,0.1835,0.1835,0.1835,0.1815,0.1815,0.1814,0.1814,0.182,0.1821,0.1822,0,0,0,0,0,0,0,0,0,0,0,0,0,0.1803,0.1793,0.1829,0.1822,0.1821,0.1835,0.1835,0.1835,0.1815,0.1815,0.1814,0.1813,0.182,0.1821,0.1822,0.1841,0,0,0.1825,0.1825,0,0,0,0,0,0,0,0,0.1802,0.1804,0.1823,0.1822,0.1822,0.1825,0.1824,0.1838,0.1815,0.1816,0.1814,0.1813,0.1824,0.1824,0.1825,0.1842,0.1842,0.1825,0.1825,0.1826,0.1826,0,0,0,0,0,0,0,0.1801,0.1804,0.183,0.1823,0.1822,0.1815,0.1815,0.1827,0.1822,0.1816,0.1815,0.1818,0.1823,0.1824,0.1825,0.1842,0.1825,0.1826,0.1826,0.1827,0.1875,0.1876,0,0,0,0,0,0,0.1805,0.1803,0.183,0.183,0.1812,0.1816,0.1817,0.1823,0.1822,0.1822,0.1819,0.1817,0.1823,0.1824,0.1825,0.1894,0.1826,0.1827,0.1827,0.1875,0.1875,0.1876,0,0,0,0,0,0,0.1804,0.1808,0.183,0.1818,0.182,0.1818,0.1825,0.1824,0.1821,0.1825,0.1824,0.1816,0.1822,0.1824,0.1842,0.1892,0.1827,0.1828,0.1874,0.1875,0.1876,0.2002,0,0,0,0,0,0,0.1803,0.1807,0.1823,0.1818,0.1821,0.1854,0.1826,0.1825,0.1825,0.1822,0.1823,0.1823,0.1822,0.1841,0.1843,0.1892,0.1829,0.1873,0.1874,0.1875,0.1996,0.2007,0.2016,0,0,0,0,0,0.1802,0.1837,0.1824,0.1828,0.184,0.1855,0.1857,0.185,0.1825,0.184,0.1833,0.1822,0.1851,0.1842,0.1845,0.1895,0.1872,0.1874,0.1875,0.1992,0.2005,0.2015,0,0,0,0,0,0,0.1842,0.1838,0.1824,0.1858,0.1859,0.1853,0.1874,0.1851,0.1855,0.1854,0.1837,0.1838,0.1877,0.1855,0.1846,0.1907,0.1858,0.186,0.1946,0.1957,0.1967,0.1989,0.1829,0,0,0,0,0,0.1854,0.1871,0.1863,0.1892,0.1895,0.1877,0.1883,0.1874,0.1872,0.1872,0.1867,0.1865,0.1887,0.1895,0.1906,0.1939,0.1928,0.1967,0.1976,0.1985,0.2001,0.2036,0.2052,0.1882,0.1882,0.1882,0,0,0.1871,0.1878,0.1884,0.19,0.1899,0.192,0.1879,0.1897,0.1917,0.1875,0.1905,0.1904,0.1901,0.1949,0.1962,0.1937,0.2023,0.1987,0.1995,0.2006,0.204,0.2057,0.2072,0.1883,0.1883,0.1883,0,0,0.1918,0.1925,0.1948,0.1957,0.1965,0.1962,0.1964,0.1957,0.1961,0.1984,0.1967,0.1993,0.2002,0.2028,0.2038,0.21,0.2076,0.2091,0.2164,0.2199,0.2215,0.2228,0.2226,0.2238,0.2094,0.2094,0.2094,0,0.1942,0.1968,0.196,0.1989,0.2004,0.198,0.2007,0.2019,0.2018,0.2032,0.2009,0.2051,0.2051,0.2122,0.2147,0.213,0.2125,0.2129,0.2217,0.2229,0.2241,0.2235,0.2247,0.2101,0.21,0.2099,0.2099,0,0.1996,0.202,0.2043,0.2066,0.2084,0.2111,0.2117,0.2137,0.213,0.2134,0.2189,0.2195,0.2217,0.2227,0.2213,0.2296,0.2257,0.2232,0.2198,0.2267,0.2254,0.2265,0.211,0.2107,0.2105,0.2104,0,0,0.2046,0.2071,0.2081,0.209,0.2125,0.2138,0.2196,0.2232,0.2264,0.2281,0.2328,0.238,0.2369,0.2378,0.2368,0.2403,0.248,0.2357,0.2356,0.2373,0.2535,0.247,0.2473,0.2475,0.2478,0.248,0.249,0,0.2089,0.2135,0.215,0.2199,0.2216,0.2232,0.2284,0.2317,0.2343,0.2386,0.2414,0.2452,0.243,0.2445,0.2487,0.2478,0.2514,0.2478,0.2449,0.2448,0.2398,0.2487,0.2524,0.2534,0.25,0.2502,0.2503,0,0.2135,0.216,0.22,0.2241,0.2254,0.2287,0.2354,0.2398,0.2467,0.249,0.2545,0.2547,0.2613,0.2572,0.2627,0.2602,0.2587,0.2577,0.2577,0.2483,0.2403,0.2459,0.2553,0.2575,0.2518,0.2517,0.2516,0,0.2138,0.2196,0.2221,0.2236,0.2286,0.2317,0.2355,0.2425,0.2455,0.2551,0.2564,0.2652,0.2657,0.2697,0.2653,0.2657,0.268,0.2677,0.2607,0.2599,0.2609,0.2598,0.2741,0.2729,0.2729,0.2729,0.2729,0,0.2165,0.2188,0.2219,0.223,0.2269,0.2318,0.2371,0.2427,0.2502,0.2527,0.2603,0.2626,0.2686,0.2685,0.2687,0.266,0.2704,0.2644,0.2617,0.2647,0.264,0.2637,0.2609,0.273,0.2729,0.2729,0.2729,0,0.2143,0.2167,0.2188,0.2242,0.2255,0.228,0.2337,0.2371,0.2458,0.2493,0.2517,0.2599,0.2631,0.2645,0.2682,0.2662,0.2622,0.2634,0.264,0.2615,0.2607,0.2582,0.2464,0.2393,0.2621,0.262,0.2619,0,0.213,0.2138,0.2167,0.2157,0.2172,0.2213,0.2228,0.2329,0.2358,0.2456,0.2456,0.2516,0.2558,0.2586,0.2606,0.2624,0.255,0.261,0.2645,0.2637,0.2591,0.2426,0.2363,0.2703,0.2703,0.2702,0.2702,0,0.2095,0.2098,0.2097,0.208,0.2081,0.2098,0.2134,0.2155,0.2261,0.2314,0.238,0.2444,0.2512,0.2587,0.2586,0.2594,0.2556,0.2603,0.263,0.2704,0.2502,0.241,0.2626,0.27,0.27,0.2701,0.2701,0.2701,0.2047,0.202,0.1998,0.1982,0.1979,0.1974,0.1981,0.2036,0.2092,0.2185,0.2278,0.2387,0.2575,0.2642,0.2585,0.2617,0.2513,0.2656,0.2635,0.2473,0.2389,0.2567,0.2578,0.2577,0.2577,0.2577,0.2576,0,0.1956,0.1922,0.1899,0.1868,0.1846,0.1878,0.1901,0.1918,0.1968,0.2107,0.2206,0.2439,0.2575,0.2668,0.2785,0.2723,0.2563,0.267,0.2538,0.2481,0.2728,0.2725,0.2726,0.2726,0.2726,0.2726,0.2726,0.2726,0.1892,0.182,0.1808,0.1742,0.1734,0.1702,0.1711,0.1757,0.1854,0.2011,0.2164,0.2309,0.2607,0.2865,0.2904,0.2827,0.2647,0.2526,0.2425,0.2748,0.2747,0.2747,0.2744,0.2749,0.2749,0.2154,0.215,0.2147]},{"header":{"parameterUnit":"m.s-1","parameterCategory":2,"la1":30.2991,"la2":30.254,"lo1":-89.0895,"lo2":-89.0444,"dy":0.0017,"dx":0.0017,"nx":28,"ny":28,"refTime":"2025-03-15T21:00:00:Z","depth":"0","parameterNumber":3,"parameterNumberName":"V-component_of_CURRENTS"},"data":[0,0,0,0,0,0,0,0,0,0,0,0,0,0,0,0,0,0,0,0,0,0,0,0,0,0,0,0,0,0,0,0,0,0,0,0,0,0,0,0,0,0,0,0,0,0,0,0,0,0,0,0,0,0,0,0,0,0,0.0048,0.0048,0,0.0062,0.0062,0.0062,0.0054,0.0054,0.0054,0.0053,-0.0004,-0.0005,-0.0006,0,0,0,0,0,0,0,0,0,0,0,0,0,0.0012,0.0013,0.0048,0.0048,0.0048,0.0062,0.0062,0.0062,0.0054,0.0054,0.0054,0.0053,-0.0003,-0.0005,-0.0006,0,0,0,0,0,0,0,0,0,0,0,0,0,0.0026,0.0013,0.0048,0.0047,0.0047,0.0062,0.0062,0.0062,0.0054,0.0054,0.0054,0.0053,-0.0003,-0.0005,-0.0007,-0.0008,0,0,-0.0012,-0.0013,0,0,0,0,0,0,0,0,0.0026,0.0028,0.0047,0.0047,0.0047,0.0056,0.0028,0.0035,0.0055,0.0051,0.0053,0.0053,0.001,0.0008,0.0011,-0.0011,-0.0014,-0.0012,-0.0014,-0.0014,-0.0015,0,0,0,0,0,0,0,0.0025,0.0027,0.0053,0.0047,0.0047,0.0045,0.0046,0.003,0.0031,0.0051,0.0051,0.0054,0.001,0.0013,0.001,-0.0014,-0.0012,-0.0014,-0.0015,-0.0016,-0.0087,-0.0088,0,0,0,0,0,0,0.0025,0.0026,0.0052,0.0053,0.0036,0.0046,0.0047,0.0053,0.0033,0.003,0.0054,0.0053,0.0017,0.0012,0.0007,-0.0031,-0.0014,-0.0016,-0.0017,-0.0086,-0.0087,-0.0088,0,0,0,0,0,0,0.0024,0.0027,0.0052,0.004,0.0043,0.0047,0.0054,0.0054,0.0056,0.0036,0.0032,0.0056,0.0016,0.001,-0.0007,-0.0032,-0.0017,-0.0019,-0.0086,-0.0087,-0.0088,-0.0087,0,0,0,0,0,0,0.0023,0.0027,0.0021,0.004,0.0044,0.0058,0.0054,0.0054,0.0059,0.0058,0.0036,0.0031,0.0015,-0.0004,-0.0009,-0.0035,-0.002,-0.0085,-0.0086,-0.0088,-0.0086,-0.0088,-0.0089,0,0,0,0,0,0.0022,0.0031,0.0021,0.0024,0.004,0.0058,0.006,0.006,0.006,0.006,0.0047,0.0031,-0.0018,-0.0006,-0.0011,-0.0038,-0.0084,-0.0086,-0.0087,-0.0085,-0.0087,-0.0089,0,0,0,0,0,0,0.0006,0.0032,0.0021,0.0034,0.0039,0.0057,0.0063,0.0062,0.0055,0.0052,0.0033,0.0026,-0.0003,-0.0016,-0.0002,-0.0064,-0.0058,-0.0061,-0.0055,-0.0057,-0.0059,-0.0038,-0.0021,0,0,0,0,0,0.0001,0.0019,0.0029,0.0036,0.0043,0.005,0.0055,0.0055,0.0057,0.0055,0.0041,0.0017,-0.0014,-0.003,-0.0052,-0.0077,-0.0079,-0.0102,-0.0104,-0.0105,-0.0093,-0.0124,-0.0127,-0.0094,-0.0094,-0.0094,0,0,-0.0003,0.0012,0.002,0.0034,0.0042,0.0053,0.0052,0.0066,0.0064,0.0048,0.0042,0.0014,-0.002,-0.0052,-0.0068,-0.0067,-0.0115,-0.0108,-0.0108,-0.0095,-0.0126,-0.0129,-0.0132,-0.0095,-0.0095,-0.0095,0,0,0.0018,0.0013,0.004,0.0044,0.0056,0.0056,0.006,0.0074,0.0068,0.0059,0.0036,0.0002,-0.0029,-0.0064,-0.0087,-0.011,-0.0121,-0.0129,-0.0123,-0.0155,-0.0157,-0.0159,-0.0157,-0.0159,-0.0133,-0.0133,-0.0133,0,0.001,0.0043,0.0046,0.0068,0.0074,0.006,0.0081,0.0069,0.0069,0.0065,0.0056,-0.0001,-0.0036,-0.0084,-0.0099,-0.0115,-0.0119,-0.0112,-0.0156,-0.0158,-0.016,-0.0158,-0.016,-0.0133,-0.0133,-0.0133,-0.0133,0,0.0059,0.0068,0.0086,0.0105,0.0105,0.0123,0.0108,0.01,0.0088,0.0075,0.0038,-0.0008,-0.0036,-0.0074,-0.0095,-0.014,-0.0132,-0.0151,-0.0146,-0.0163,-0.016,-0.0162,-0.0133,-0.0133,-0.0133,-0.0133,0,0,0.0097,0.0119,0.0123,0.0134,0.0129,0.0143,0.0127,0.012,0.0127,0.008,0.0085,-0.0003,-0.0021,-0.0047,-0.0091,-0.0134,-0.0163,-0.0148,-0.015,-0.0136,-0.0205,-0.0196,-0.0198,-0.0191,-0.0192,-0.0193,-0.0191,0,0.0138,0.0184,0.018,0.0205,0.0226,0.0197,0.0193,0.0171,0.0152,0.0147,0.0067,0.0051,-0.0015,-0.0024,-0.0082,-0.0131,-0.0171,-0.0159,-0.0197,-0.0197,-0.0181,-0.0201,-0.0179,-0.0176,-0.0194,-0.0194,-0.0194,0,0.0194,0.0217,0.0258,0.0267,0.0277,0.0283,0.0285,0.028,0.0242,0.0227,0.0177,0.0134,0.0063,0.0015,-0.009,-0.0077,-0.0137,-0.0188,-0.019,-0.018,-0.0193,-0.0165,-0.018,-0.0298,-0.0198,-0.0198,-0.0197,0,0.024,0.027,0.0306,0.031,0.0318,0.0331,0.0332,0.031,0.0328,0.0287,0.0301,0.0202,0.0185,0.0073,-0.0035,-0.0058,-0.0135,-0.0177,-0.0228,-0.0227,-0.0213,-0.0209,-0.0338,-0.0253,-0.0253,-0.0253,-0.0253,0,0.0288,0.0315,0.0336,0.0357,0.041,0.0389,0.044,0.0423,0.0426,0.0456,0.0357,0.0367,0.0198,0.0132,0.0007,-0.0101,-0.0101,-0.0219,-0.0232,-0.0211,-0.0208,-0.0314,-0.0399,-0.0253,-0.0253,-0.0253,-0.0253,0,0.0328,0.0339,0.0389,0.0418,0.0437,0.0475,0.0526,0.0563,0.0547,0.0588,0.0582,0.0508,0.0414,0.0254,0.0099,-0.0018,-0.021,-0.0183,-0.013,-0.0137,-0.0309,-0.0394,-0.0508,-0.0583,-0.024,-0.0239,-0.0239,0,0.0351,0.0383,0.0447,0.049,0.0511,0.0569,0.0618,0.0626,0.0673,0.0678,0.0712,0.0637,0.0601,0.0389,0.0156,-0.0045,-0.0192,-0.0151,-0.0213,-0.0311,-0.0417,-0.0463,-0.0522,-0.0187,-0.0187,-0.0186,-0.0186,0,0.0398,0.0425,0.0468,0.0561,0.0628,0.0704,0.0773,0.0836,0.0849,0.089,0.0929,0.0903,0.0687,0.0503,0.0222,0.0058,-0.024,-0.0148,-0.0278,-0.0408,-0.044,-0.0519,-0.0174,-0.0182,-0.0182,-0.0183,-0.0183,-0.0183,0.0436,0.0481,0.0547,0.0636,0.0716,0.0823,0.091,0.0988,0.1086,0.1175,0.1122,0.1152,0.0855,0.047,0.0208,-0.0197,-0.0232,-0.031,-0.0407,-0.0443,-0.0525,-0.0154,-0.0167,-0.0167,-0.0168,-0.0168,-0.0168,0,0.0479,0.0532,0.0616,0.0727,0.0828,0.0862,0.1004,0.111,0.1249,0.1349,0.14,0.1336,0.0936,0.0524,-0.0043,-0.0368,-0.0512,-0.0547,-0.0626,-0.068,-0.0364,-0.0372,-0.0396,-0.0396,-0.0396,-0.0396,-0.0396,-0.0396,0.0505,0.0586,0.0631,0.08,0.0888,0.1049,0.1145,0.1305,0.1432,0.163,0.1722,0.1752,0.1512,0.0385,-0.0361,-0.0587,-0.0853,-0.0895,-0.1031,-0.0831,-0.0817,-0.0803,-0.083,-0.095,-0.0951,-0.1288,-0.1292,-0.1295]}],[{"header":{"parameterUnit":"m.s-1","parameterCategory":2,"la1":30.2991,"la2":30.254,"lo1":-89.0895,"lo2":-89.0444,"dy":0.0017,"dx":0.0017,"nx":28,"ny":28,"refTime":"2025-03-15T21:00:00:Z","depth":"2","parameterNumber":2,"parameterNumberName":"U-component_of_CURRENTS"},"data":[0,0,0,0,0,0,0,0,0,0,0,0,0,0,0,0,0,0,0,0,0,0,0,0,0,0,0,0,0,0,0,0,0,0,0,0,0,0,0,0,0,0,0,0,0,0,0,0,0,0,0,0,0,0,0,0,0,0,0.1721,0.1721,0,0.1731,0.1731,0.1731,0.1718,0.1718,0.1717,0.1717,0.1724,0.1725,0.1725,0,0,0,0,0,0,0,0,0,0,0,0,0,0.1685,0.1686,0.1721,0.1721,0.1721,0.1731,0.1731,0.1731,0.1718,0.1718,0.1717,0.1717,0.1724,0.1725,0.1725,0,0,0,0,0,0,0,0,0,0,0,0,0,0.1697,0.1686,0.1721,0.1717,0.1717,0.1731,0.1731,0.1731,0.1718,0.1718,0.1717,0.1717,0.1724,0.1725,0.1725,0.174,0,0,0.1728,0.1728,0,0,0,0,0,0,0,0,0.1697,0.1698,0.1717,0.1717,0.1717,0.1724,0.1721,0.1734,0.1718,0.1716,0.1717,0.1716,0.1725,0.1726,0.1727,0.174,0.1741,0.1728,0.1728,0.1728,0.1729,0,0,0,0,0,0,0,0.1696,0.1698,0.1723,0.1718,0.1718,0.1713,0.1714,0.1723,0.1722,0.1716,0.1716,0.1719,0.1725,0.1726,0.1727,0.1741,0.1728,0.1728,0.1729,0.1729,0.1773,0.1774,0,0,0,0,0,0,0.1698,0.1697,0.1723,0.1724,0.1707,0.1714,0.1715,0.1721,0.1722,0.1722,0.172,0.1719,0.1725,0.1726,0.1727,0.1795,0.1728,0.1729,0.173,0.1773,0.1773,0.1774,0,0,0,0,0,0,0.1698,0.1701,0.1723,0.1712,0.1714,0.1716,0.1722,0.1722,0.1722,0.1725,0.1725,0.172,0.1725,0.1726,0.1741,0.1793,0.173,0.173,0.1772,0.1773,0.1774,0.1899,0,0,0,0,0,0,0.1697,0.17,0.1719,0.1712,0.1715,0.1747,0.1723,0.1722,0.1725,0.1724,0.1726,0.1726,0.1724,0.174,0.1742,0.1793,0.1731,0.1771,0.1772,0.1773,0.1894,0.1904,0.1913,0,0,0,0,0,0.1695,0.1733,0.172,0.1724,0.1736,0.1749,0.1751,0.1748,0.1726,0.1742,0.1734,0.1726,0.175,0.1742,0.1743,0.1796,0.177,0.1772,0.1773,0.189,0.1902,0.1913,0,0,0,0,0,0,0.1742,0.1735,0.172,0.1757,0.1755,0.1747,0.1771,0.1749,0.1754,0.1754,0.1737,0.1738,0.1776,0.1754,0.1745,0.1807,0.1758,0.176,0.1846,0.1857,0.1867,0.1891,0.1731,0,0,0,0,0,0.1756,0.1774,0.1762,0.1792,0.1793,0.1775,0.1782,0.1774,0.1771,0.1772,0.1766,0.1764,0.1784,0.1793,0.1802,0.1834,0.1823,0.1864,0.1873,0.1882,0.19,0.1935,0.1951,0.178,0.178,0.1779,0,0,0.1774,0.1782,0.1787,0.1801,0.1799,0.1818,0.1778,0.1797,0.1816,0.1774,0.1804,0.1801,0.1797,0.1843,0.1857,0.1833,0.1919,0.1884,0.1892,0.1905,0.1939,0.1956,0.1972,0.1781,0.178,0.178,0,0,0.1823,0.1832,0.1854,0.186,0.1867,0.1864,0.1866,0.1856,0.1861,0.1883,0.1865,0.1889,0.1898,0.1922,0.1931,0.1991,0.197,0.1985,0.2062,0.2097,0.2112,0.2126,0.2118,0.213,0.199,0.199,0.199,0,0.1851,0.1873,0.1866,0.1893,0.1906,0.1883,0.1907,0.1919,0.1915,0.193,0.1909,0.1948,0.1947,0.2015,0.2041,0.2022,0.2016,0.2027,0.2114,0.2127,0.2139,0.2127,0.2139,0.1996,0.1995,0.1995,0.1994,0,0.1901,0.1925,0.1947,0.1967,0.1984,0.2009,0.2013,0.2034,0.203,0.2034,0.2088,0.2091,0.2113,0.2122,0.2108,0.2192,0.2151,0.2127,0.2096,0.2165,0.2146,0.2157,0.2005,0.2003,0.2001,0.1999,0,0,0.1951,0.1972,0.1982,0.1989,0.2024,0.2036,0.2093,0.2128,0.2161,0.218,0.2227,0.2277,0.2268,0.2276,0.2264,0.2301,0.2377,0.2257,0.2256,0.2268,0.2429,0.2368,0.2372,0.2374,0.2377,0.2379,0.2378,0,0.1991,0.2034,0.2047,0.2093,0.2107,0.2125,0.2175,0.221,0.2238,0.2283,0.2312,0.235,0.2329,0.2344,0.2388,0.2374,0.2411,0.2377,0.2344,0.2342,0.2297,0.2385,0.2227,0.2211,0.2387,0.2389,0.239,0,0.2029,0.2055,0.2092,0.2131,0.2143,0.2176,0.2245,0.2289,0.236,0.2384,0.2443,0.2447,0.2512,0.2475,0.2524,0.2502,0.2486,0.2474,0.2473,0.2384,0.2302,0.2171,0.2222,0.2406,0.2405,0.2404,0.2402,0,0.2031,0.2087,0.2111,0.2125,0.2173,0.2206,0.2245,0.2317,0.2346,0.2447,0.2461,0.2549,0.2553,0.2594,0.255,0.2554,0.2573,0.2567,0.2499,0.2492,0.2335,0.231,0.2621,0.2621,0.2621,0.2621,0.2621,0,0.2054,0.2076,0.211,0.2119,0.2158,0.2208,0.2262,0.2318,0.2393,0.2419,0.25,0.2522,0.2583,0.2581,0.2583,0.2554,0.2595,0.2538,0.2509,0.2369,0.2348,0.2495,0.2481,0.2621,0.2621,0.2621,0.2621,0,0.2031,0.2055,0.2076,0.213,0.2145,0.2171,0.2229,0.2262,0.2349,0.2386,0.2411,0.2493,0.2523,0.2538,0.2573,0.2553,0.2557,0.2525,0.2334,0.2286,0.2451,0.2443,0.2511,0.2509,0.2507,0.2506,0.2505,0,0.2017,0.2025,0.2057,0.2049,0.2065,0.2108,0.2124,0.2223,0.2251,0.2347,0.2347,0.2407,0.2446,0.247,0.2456,0.2462,0.2497,0.2296,0.2307,0.2486,0.2451,0.2445,0.2438,0.2129,0.2125,0.2122,0.2119,0,0.1981,0.1987,0.1987,0.1974,0.1978,0.1995,0.2032,0.2051,0.2155,0.2202,0.2266,0.2326,0.2359,0.2324,0.231,0.2289,0.2301,0.2233,0.2474,0.2188,0.2129,0.2093,0.2099,0.209,0.2093,0.2095,0.2097,0.2098,0.1936,0.191,0.1892,0.188,0.1879,0.1874,0.188,0.1919,0.1968,0.2017,0.2124,0.2147,0.2191,0.2135,0.2058,0.1991,0.2171,0.2096,0.2105,0.2118,0.2081,0.2024,0.1956,0.1958,0.1959,0.1961,0.1962,0,0.1842,0.1817,0.1796,0.177,0.1739,0.1782,0.1802,0.1782,0.1808,0.1869,0.1929,0.1803,0.1813,0.1831,0.1715,0.1729,0.1695,0.1649,0.1606,0.1639,0.1667,0.1605,0.1354,0.1351,0.1349,0.1347,0,0,0.1779,0.1707,0.1695,0.1627,0.1629,0.1578,0.1585,0.1567,0.1588,0.1569,0.158,0.1723,0.1812,0.1555,0.1538,0.1431,0.1509,0.1366,0.1868,0.1853,0.1877,0.1953,0.1899,0,0,0,0,0]},{"header":{"parameterUnit":"m.s-1","parameterCategory":2,"la1":30.2991,"la2":30.254,"lo1":-89.0895,"lo2":-89.0444,"dy":0.0017,"dx":0.0017,"nx":28,"ny":28,"refTime":"2025-03-15T21:00:00:Z","depth":"2","parameterNumber":3,"parameterNumberName":"V-component_of_CURRENTS"},"data":[0,0,0,0,0,0,0,0,0,0,0,0,0,0,0,0,0,0,0,0,0,0,0,0,0,0,0,0,0,0,0,0,0,0,0,0,0,0,0,0,0,0,0,0,0,0,0,0,0,0,0,0,0,0,0,0,0,0,0.0107,0.0108,0,0.0115,0.0116,0.0116,0.0103,0.0103,0.0102,0.0102,0.0043,0.0042,0.0041,0,0,0,0,0,0,0,0,0,0,0,0,0,0.0073,0.0074,0.0107,0.0108,0.0108,0.0115,0.0116,0.0116,0.0103,0.0103,0.0102,0.0102,0.0044,0.0042,0.0041,0,0,0,0,0,0,0,0,0,0,0,0,0,0.0085,0.0074,0.0107,0.0103,0.0103,0.0115,0.0116,0.0116,0.0103,0.0103,0.0102,0.0102,0.0044,0.0043,0.0041,0.0041,0,0,0.0035,0.0035,0,0,0,0,0,0,0,0,0.0084,0.0086,0.0103,0.0103,0.0103,0.0108,0.0082,0.0088,0.0103,0.0103,0.0102,0.0101,0.006,0.0057,0.006,0.0038,0.0036,0.0035,0.0034,0.0033,0.0033,0,0,0,0,0,0,0,0.0083,0.0086,0.011,0.0104,0.0103,0.0098,0.0099,0.0083,0.0083,0.0103,0.0102,0.0104,0.0059,0.0061,0.0058,0.0035,0.0035,0.0034,0.0032,0.0032,-0.0036,-0.0037,0,0,0,0,0,0,0.0085,0.0085,0.011,0.011,0.0093,0.0099,0.01,0.0107,0.0084,0.0081,0.0104,0.0103,0.0065,0.006,0.0056,0.0019,0.0033,0.0032,0.0031,-0.0035,-0.0036,-0.0037,0,0,0,0,0,0,0.0084,0.0087,0.011,0.0098,0.01,0.01,0.0108,0.0107,0.0107,0.0086,0.0081,0.0104,0.0064,0.0058,0.0043,0.0018,0.0031,0.0029,-0.0035,-0.0036,-0.0037,-0.0033,0,0,0,0,0,0,0.0083,0.0087,0.008,0.0098,0.0101,0.0114,0.0108,0.0108,0.0109,0.0108,0.0085,0.0079,0.0063,0.0046,0.0041,0.0015,0.0028,-0.0034,-0.0035,-0.0036,-0.0032,-0.0033,-0.0035,0,0,0,0,0,0.0082,0.009,0.0079,0.0082,0.0096,0.0114,0.0115,0.0113,0.011,0.011,0.0097,0.008,0.0033,0.0045,0.0039,0.0012,-0.0033,-0.0035,-0.0036,-0.0031,-0.0033,-0.0035,0,0,0,0,0,0,0.0064,0.009,0.0079,0.009,0.0095,0.0112,0.0117,0.0114,0.0107,0.0102,0.0083,0.0077,0.0049,0.0035,0.0048,-0.0013,-0.0008,-0.0011,-0.0003,-0.0005,-0.0006,0.0014,0.0026,0,0,0,0,0,0.0058,0.0076,0.0086,0.0092,0.0099,0.0105,0.0108,0.0108,0.011,0.0106,0.0092,0.0068,0.0039,0.0023,0.0002,-0.0022,-0.0025,-0.0048,-0.0049,-0.005,-0.0038,-0.0069,-0.0072,-0.0042,-0.0042,-0.0042,0,0,0.0054,0.0068,0.0076,0.009,0.0098,0.011,0.0106,0.0119,0.0118,0.01,0.0094,0.0067,0.0033,0.0003,-0.0012,-0.0013,-0.0059,-0.0052,-0.0053,-0.004,-0.0071,-0.0074,-0.0076,-0.0044,-0.0043,-0.0043,0,0,0.0075,0.0068,0.0096,0.01,0.0111,0.0112,0.0116,0.0129,0.0121,0.0113,0.0091,0.0058,0.0027,-0.0006,-0.0028,-0.0049,-0.0063,-0.0068,-0.0063,-0.0094,-0.0096,-0.0098,-0.0095,-0.0097,-0.0073,-0.0073,-0.0073,0,0.0064,0.0099,0.0102,0.0125,0.0132,0.0116,0.0138,0.0126,0.0126,0.0122,0.011,0.0056,0.0021,-0.0022,-0.0038,-0.0053,-0.0058,-0.0053,-0.0095,-0.0097,-0.0099,-0.0096,-0.0098,-0.0073,-0.0073,-0.0073,-0.0073,0,0.0117,0.0126,0.0145,0.0166,0.0166,0.0184,0.017,0.0162,0.0147,0.0134,0.0099,0.0053,0.0025,-0.0012,-0.0033,-0.0076,-0.0069,-0.0089,-0.0086,-0.0101,-0.0097,-0.0099,-0.0073,-0.0073,-0.0073,-0.0073,0,0,0.0152,0.0179,0.0183,0.0195,0.0192,0.0206,0.0192,0.0187,0.0194,0.0146,0.015,0.0065,0.0044,0.0019,-0.0025,-0.0067,-0.0097,-0.0085,-0.0086,-0.0073,-0.0138,-0.0137,-0.0139,-0.0126,-0.0127,-0.0127,-0.0124,0,0.0195,0.0243,0.0243,0.027,0.0293,0.0265,0.0264,0.0242,0.0221,0.0215,0.0137,0.012,0.0053,0.0042,-0.0016,-0.0065,-0.0104,-0.0093,-0.0132,-0.0132,-0.0123,-0.0143,-0.012,-0.0117,-0.0126,-0.0127,-0.0127,0,0.0254,0.0278,0.0322,0.0335,0.0345,0.0353,0.0356,0.0352,0.0314,0.0298,0.0247,0.0203,0.0133,0.0082,-0.0021,-0.0009,-0.0071,-0.0121,-0.0123,-0.0122,-0.0136,-0.0107,-0.0121,-0.0131,-0.0131,-0.013,-0.013,0,0.0297,0.0331,0.037,0.0375,0.0387,0.04,0.0402,0.0381,0.0398,0.0356,0.0368,0.0272,0.0251,0.0142,0.003,0.0009,-0.0069,-0.0108,-0.0166,-0.0165,-0.0152,-0.0149,-0.0184,-0.0184,-0.0184,-0.0184,-0.0184,0,0.0346,0.0374,0.0397,0.0419,0.0473,0.0455,0.0504,0.0489,0.0491,0.0519,0.0422,0.0428,0.0263,0.0195,0.0072,-0.0039,-0.0036,-0.0158,-0.0171,-0.0149,-0.0147,-0.0167,-0.0165,-0.0184,-0.0184,-0.0184,-0.0184,0,0.0383,0.0397,0.0447,0.0479,0.0498,0.0534,0.0585,0.062,0.0606,0.0642,0.0635,0.0561,0.0465,0.0309,0.0155,0.004,-0.0083,-0.0127,-0.0074,-0.0083,-0.0166,-0.0164,-0.0186,-0.0186,-0.0186,-0.0186,-0.0186,0,0.0405,0.0437,0.0501,0.0543,0.0564,0.0619,0.0667,0.0678,0.0723,0.0725,0.0756,0.0678,0.0636,0.0425,0.0198,0.0002,-0.0052,-0.0105,-0.0163,-0.0158,-0.0169,-0.0167,-0.0165,-0.0135,-0.0135,-0.0134,-0.0134,0,0.0449,0.0475,0.0518,0.0607,0.0671,0.0746,0.0812,0.0872,0.0886,0.0924,0.0956,0.0926,0.0712,0.0514,0.0236,0.0092,-0.0076,-0.0105,-0.0115,-0.0142,-0.0112,-0.0122,-0.0121,-0.0131,-0.0132,-0.0132,-0.0132,-0.0132,0.0482,0.0525,0.0588,0.0673,0.0751,0.0855,0.094,0.101,0.1102,0.1165,0.1117,0.1084,0.0831,0.0488,0.0226,-0.0051,-0.0046,-0.0145,-0.0145,-0.0146,-0.0145,-0.0118,-0.0135,-0.0136,-0.0136,-0.0136,-0.0136,0,0.052,0.057,0.065,0.0757,0.0855,0.0889,0.1028,0.1117,0.1241,0.1282,0.1311,0.1086,0.0843,0.0545,0.0143,-0.0096,-0.013,-0.0176,-0.0169,-0.0169,-0.0169,-0.0171,-0.0167,-0.0168,-0.0169,-0.017,0,0,0.0542,0.0617,0.0662,0.0823,0.0908,0.1062,0.1156,0.1282,0.1355,0.1425,0.1405,0.1326,0.0953,0.0655,0.0313,0.0077,0.0011,0.0029,0.0083,0.0134,0.0137,-0.0119,-0.0116,0,0,0,0,0]}],[{"header":{"parameterUnit":"m.s-1","parameterCategory":2,"la1":30.2991,"la2":30.254,"lo1":-89.0895,"lo2":-89.0444,"dy":0.0017,"dx":0.0017,"nx":28,"ny":28,"refTime":"2025-03-15T21:00:00:Z","depth":"4","parameterNumber":2,"parameterNumberName":"U-component_of_CURRENTS"},"data":[0,0,0,0,0,0,0,0,0,0,0,0,0,0,0,0,0,0,0,0,0,0,0,0,0,0,0,0,0,0,0,0,0,0,0,0,0,0,0,0,0,0,0,0,0,0,0,0,0,0,0,0,0,0,0,0,0,0,0.0555,0.0556,0,0.0612,0.0613,0.0613,0.0679,0.0681,0.0683,0.0684,0.0771,0.0772,0.0773,0,0,0,0,0,0,0,0,0,0,0,0,0,0.0472,0.0473,0.0555,0.0556,0.0558,0.0612,0.0613,0.0613,0.0679,0.0681,0.0683,0.0685,0.0771,0.0772,0.0773,0,0,0,0,0,0,0,0,0,0,0,0,0,0.051,0.0473,0.0555,0.0602,0.0608,0.0612,0.0613,0.0613,0.0679,0.0681,0.0683,0.0686,0.0771,0.0772,0.0773,0.0732,0,0,0.0777,0.0777,0,0,0,0,0,0,0,0,0.0508,0.0512,0.0594,0.0599,0.0605,0.0647,0.0616,0.0656,0.0678,0.0644,0.0684,0.0687,0.0735,0.074,0.0735,0.0736,0.0739,0.0777,0.0778,0.0778,0.0779,0,0,0,0,0,0,0,0.0505,0.051,0.0571,0.0596,0.0602,0.0611,0.0619,0.0623,0.0671,0.0648,0.0654,0.0671,0.0738,0.0733,0.0738,0.0741,0.0777,0.0778,0.0779,0.0779,0.0839,0.084,0,0,0,0,0,0,0.0511,0.0508,0.0569,0.0573,0.0569,0.0611,0.0619,0.0626,0.067,0.0681,0.0669,0.0674,0.073,0.0736,0.0741,0.0762,0.0778,0.0779,0.078,0.0838,0.0839,0.084,0,0,0,0,0,0,0.0509,0.0515,0.0567,0.0548,0.0556,0.0611,0.0617,0.0626,0.0656,0.0687,0.0698,0.0695,0.0732,0.0739,0.0803,0.0764,0.078,0.0781,0.0837,0.0839,0.084,0.0761,0,0,0,0,0,0,0.0506,0.0513,0.0514,0.0548,0.0558,0.0602,0.0616,0.0625,0.0664,0.0671,0.0712,0.0721,0.0735,0.0801,0.0804,0.0766,0.0782,0.0836,0.0838,0.0839,0.0762,0.0759,0.0756,0,0,0,0,0,0.0502,0.0496,0.0513,0.0521,0.0558,0.0603,0.0609,0.0651,0.0663,0.0683,0.0729,0.0722,0.0813,0.0804,0.0807,0.0767,0.0835,0.0837,0.0839,0.0763,0.076,0.0756,0,0,0,0,0,0,0.0471,0.0504,0.0523,0.0531,0.0581,0.0618,0.0651,0.0659,0.0703,0.0723,0.0742,0.0755,0.0795,0.0807,0.0797,0.0796,0.0817,0.082,0.0758,0.0755,0.0752,0.0887,0.0783,0,0,0,0,0,0.046,0.0449,0.0513,0.0515,0.0566,0.0607,0.0629,0.0653,0.0699,0.072,0.0754,0.0784,0.0794,0.0803,0.0835,0.0829,0.0909,0.0808,0.0805,0.0802,0.0918,0.0948,0.0959,0.0847,0.0847,0.0847,0,0,0.0465,0.0461,0.0472,0.0505,0.0561,0.0627,0.0628,0.068,0.0713,0.0721,0.0793,0.079,0.0802,0.081,0.0823,0.0817,0.0872,0.0804,0.0801,0.0923,0.0951,0.0962,0.0972,0.0848,0.0848,0.0848,0,0,0.0478,0.0472,0.0509,0.0541,0.0607,0.0634,0.0659,0.0725,0.0753,0.0805,0.0806,0.0833,0.0844,0.0852,0.0848,0.0861,0.087,0.0805,0.0874,0.0895,0.0906,0.0916,0.1011,0.103,0.0781,0.0781,0.078,0,0.0475,0.0518,0.0529,0.0576,0.0615,0.0651,0.0729,0.0749,0.081,0.0842,0.0846,0.0896,0.089,0.0896,0.0896,0.0858,0.0889,0.0862,0.0891,0.0903,0.0915,0.101,0.1033,0.0777,0.0777,0.0778,0.0778,0,0.0558,0.0577,0.061,0.0674,0.0712,0.0767,0.0826,0.0866,0.0894,0.0914,0.0969,0.0972,0.1018,0.0949,0.0932,0.0964,0.0966,0.0888,0.0894,0.0922,0.102,0.1045,0.0772,0.0773,0.0774,0.0775,0,0,0.0588,0.0655,0.0671,0.0702,0.0762,0.0803,0.0872,0.0952,0.1005,0.104,0.1117,0.1109,0.112,0.1129,0.1059,0.1068,0.1137,0.101,0.1013,0.1103,0.123,0.1083,0.1097,0.101,0.1014,0.1018,0.1257,0,0.0665,0.0738,0.0764,0.0847,0.0907,0.0937,0.0991,0.104,0.1086,0.1161,0.1168,0.122,0.1169,0.1168,0.1176,0.1155,0.1203,0.1087,0.1203,0.1213,0.107,0.1121,0.1031,0.1276,0.1282,0.1286,0.1289,0,0.0761,0.0777,0.0875,0.091,0.0957,0.1013,0.1107,0.1153,0.1238,0.1274,0.1341,0.1357,0.1425,0.135,0.1435,0.1341,0.1345,0.1325,0.133,0.1273,0.1112,0.1253,0.1335,0.1332,0.1328,0.1325,0.1322,0,0.0763,0.0851,0.0911,0.0928,0.0998,0.1062,0.1121,0.1202,0.1254,0.137,0.1434,0.1505,0.1561,0.1582,0.1572,0.1506,0.1653,0.1539,0.1448,0.1439,0.1535,0.1522,0.1662,0.1661,0.1661,0.166,0.1659,0,0.0783,0.0836,0.0924,0.0945,0.1029,0.1084,0.1181,0.1249,0.1357,0.1422,0.1504,0.1568,0.1614,0.1675,0.1658,0.1648,0.1734,0.1554,0.1499,0.1491,0.1471,0.1551,0.1535,0.1669,0.1667,0.1665,0.1664,0,0.0764,0.0818,0.0882,0.0984,0.102,0.1087,0.1209,0.1275,0.1387,0.1487,0.1541,0.1664,0.1737,0.1778,0.1824,0.175,0.1747,0.1718,0.1803,0.1734,0.1525,0.1502,0.1703,0.17,0.1697,0.1695,0.1693,0,0.0751,0.0782,0.0896,0.0942,0.1001,0.1095,0.1154,0.1272,0.1339,0.151,0.1561,0.1701,0.1752,0.1765,0.1781,0.181,0.1741,0.178,0.1616,0.1608,0.1535,0.1516,0.1497,0.1689,0.1688,0.1688,0.1687,0,0.0724,0.0786,0.0844,0.0925,0.1008,0.1066,0.1173,0.1214,0.1342,0.1463,0.1543,0.1591,0.1674,0.1696,0.1728,0.1714,0.177,0.1753,0.1757,0.1603,0.1593,0.1519,0.1503,0.1678,0.168,0.168,0.1681,0,0.0719,0.0761,0.0842,0.0908,0.0989,0.1029,0.1082,0.1164,0.1233,0.1419,0.1432,0.1553,0.1655,0.165,0.1664,0.1657,0.1617,0.1548,0.1562,0.1572,0.14,0.1361,0.1397,0,0,0,0,0,0.0707,0.0754,0.0814,0.0879,0.0949,0.0985,0.1089,0.1141,0.1261,0.1285,0.1354,0.1412,0.1454,0.1514,0.1477,0.1601,0.1622,0.1552,0.1549,0.1629,0.1639,0.1438,0,0,0,0,0,0,0.0708,0.0778,0.0799,0.0826,0.0855,0.0917,0.0973,0.1055,0.1067,0.1196,0.1225,0.132,0.1381,0.1456,0.1447,0.1464,0.1431,0.1621,0.1617,0.1623,0.1633,0.1641,0.1437,0,0,0,0,0]},{"header":{"parameterUnit":"m.s-1","parameterCategory":2,"la1":30.2991,"la2":30.254,"lo1":-89.0895,"lo2":-89.0444,"dy":0.0017,"dx":0.0017,"nx":28,"ny":28,"refTime":"2025-03-15T21:00:00:Z","depth":"4","parameterNumber":3,"parameterNumberName":"V-component_of_CURRENTS"},"data":[0,0,0,0,0,0,0,0,0,0,0,0,0,0,0,0,0,0,0,0,0,0,0,0,0,0,0,0,0,0,0,0,0,0,0,0,0,0,0,0,0,0,0,0,0,0,0,0,0,0,0,0,0,0,0,0,0,0,0.055,0.0549,0,0.052,0.052,0.052,0.0507,0.0507,0.0507,0.0507,0.0442,0.044,0.0439,0,0,0,0,0,0,0,0,0,0,0,0,0,0.055,0.0551,0.055,0.0549,0.0549,0.052,0.052,0.052,0.0507,0.0507,0.0507,0.0506,0.0442,0.0441,0.0439,0,0,0,0,0,0,0,0,0,0,0,0,0,0.0542,0.0551,0.055,0.0536,0.0534,0.052,0.052,0.052,0.0508,0.0507,0.0507,0.0506,0.0443,0.0441,0.0439,0.0434,0,0,0.0432,0.0431,0,0,0,0,0,0,0,0,0.0542,0.0543,0.0539,0.0537,0.0535,0.0513,0.0496,0.0488,0.0508,0.0522,0.0507,0.0506,0.046,0.0457,0.0458,0.0431,0.0428,0.0432,0.043,0.043,0.0429,0,0,0,0,0,0,0,0.0543,0.0543,0.0542,0.0538,0.0536,0.0515,0.0514,0.0494,0.0496,0.0521,0.0519,0.0509,0.0459,0.046,0.0456,0.0427,0.0432,0.043,0.0429,0.0428,0.0398,0.0398,0,0,0,0,0,0,0.0542,0.0544,0.0543,0.0541,0.0533,0.0515,0.0514,0.0524,0.0497,0.0492,0.0509,0.0508,0.0464,0.0459,0.0454,0.0481,0.043,0.0428,0.0426,0.0397,0.0398,0.0398,0,0,0,0,0,0,0.0542,0.0543,0.0544,0.0537,0.0535,0.0515,0.0526,0.0524,0.0524,0.0488,0.0483,0.0512,0.0464,0.0457,0.0449,0.0477,0.0427,0.0425,0.0397,0.0398,0.0398,0.0514,0,0,0,0,0,0,0.0543,0.0544,0.0561,0.0538,0.0536,0.0539,0.0526,0.0523,0.0516,0.0515,0.0489,0.0482,0.0463,0.0452,0.0447,0.0473,0.0423,0.0396,0.0397,0.0398,0.0509,0.0518,0.0526,0,0,0,0,0,0.0544,0.0566,0.0562,0.0562,0.0557,0.0538,0.0536,0.0522,0.0517,0.0521,0.051,0.0483,0.0454,0.0451,0.0444,0.0471,0.0396,0.0397,0.0398,0.0506,0.0517,0.0526,0,0,0,0,0,0,0.0576,0.0566,0.0561,0.0581,0.0561,0.0535,0.054,0.0525,0.0521,0.0522,0.0493,0.0486,0.049,0.0457,0.0455,0.0462,0.0419,0.0418,0.0503,0.0513,0.0521,0.0491,0.0421,0,0,0,0,0,0.059,0.061,0.0581,0.06,0.059,0.0567,0.056,0.0545,0.0531,0.0529,0.0512,0.0494,0.0489,0.0483,0.0465,0.047,0.0407,0.0478,0.0487,0.0494,0.0463,0.0429,0.0432,0.0402,0.0402,0.0402,0,0,0.0598,0.0605,0.0609,0.0608,0.0596,0.0588,0.0564,0.0554,0.0554,0.0521,0.0529,0.0521,0.0495,0.0508,0.0505,0.0486,0.0468,0.0496,0.0503,0.0466,0.0431,0.0434,0.0436,0.0403,0.0403,0.0403,0,0,0.0618,0.0638,0.0647,0.0641,0.0624,0.0611,0.0608,0.0583,0.0581,0.0577,0.0567,0.0567,0.055,0.0547,0.0541,0.0575,0.0514,0.0582,0.0605,0.0575,0.0577,0.0578,0.0496,0.0489,0.0588,0.0589,0.0589,0,0.0635,0.0647,0.0644,0.0651,0.0651,0.0623,0.0621,0.0616,0.0595,0.0597,0.0585,0.0577,0.0562,0.0579,0.06,0.0594,0.0551,0.058,0.0587,0.0587,0.0586,0.0501,0.0492,0.0594,0.0594,0.0593,0.0593,0,0.0641,0.0661,0.0669,0.0676,0.0676,0.0675,0.0658,0.0662,0.0655,0.0642,0.0649,0.0634,0.062,0.0638,0.063,0.0635,0.0597,0.0606,0.0566,0.0596,0.0505,0.0493,0.0602,0.06,0.0599,0.0597,0,0,0.0651,0.067,0.0674,0.0689,0.0693,0.0693,0.0705,0.0701,0.0707,0.0694,0.0695,0.0702,0.0685,0.0673,0.0675,0.0658,0.0626,0.0637,0.0633,0.0561,0.0524,0.0521,0.0506,0.0656,0.0655,0.0654,0.0462,0,0.0656,0.0684,0.0691,0.0716,0.0722,0.0728,0.0741,0.0741,0.0736,0.0733,0.0716,0.0711,0.0703,0.0706,0.069,0.0641,0.0601,0.0673,0.0497,0.049,0.0491,0.0495,0.065,0.0452,0.0449,0.0447,0.0446,0,0.0645,0.0675,0.0701,0.0744,0.0747,0.0763,0.079,0.0795,0.0788,0.0778,0.0766,0.0742,0.0709,0.0702,0.0597,0.065,0.058,0.0536,0.0529,0.0467,0.0465,0.0414,0.0423,0.0425,0.0426,0.0428,0.0429,0,0.0641,0.0682,0.0715,0.0728,0.0763,0.0787,0.0805,0.0811,0.0817,0.08,0.0786,0.0745,0.0707,0.0634,0.0539,0.0565,0.0411,0.043,0.0345,0.0341,0.035,0.0351,0.0335,0.0335,0.0335,0.0336,0.0337,0,0.0643,0.0668,0.0721,0.0739,0.0781,0.08,0.0832,0.0839,0.0839,0.0841,0.0804,0.0783,0.0693,0.0607,0.0522,0.0386,0.0383,0.0319,0.0297,0.0401,0.041,0.034,0.0344,0.0329,0.033,0.0332,0.0333,0,0.0623,0.0657,0.0697,0.0755,0.0777,0.0805,0.0852,0.0867,0.086,0.0857,0.0846,0.0784,0.0669,0.0562,0.0419,0.0352,0.0234,0.0187,0.026,0.0249,0.0175,0.0186,0.0045,0.0044,0.0042,0.0041,0.004,0,0.0616,0.0634,0.0707,0.0735,0.0766,0.0814,0.0843,0.087,0.0885,0.0861,0.0855,0.0752,0.0698,0.0469,0.0369,0.017,0.0168,0.0075,0.0159,0.0155,0.0147,0.0161,0.0173,0.0038,0.0038,0.0037,0.0037,0,0.0598,0.0626,0.066,0.0721,0.0769,0.0822,0.087,0.0882,0.0904,0.0896,0.0847,0.0743,0.0609,0.0463,0.0307,0.0183,0.0125,0.0061,0.0063,0.0141,0.0145,0.0141,0.0155,0.0032,0.0033,0.0033,0.0034,0,0.0583,0.0598,0.0647,0.07,0.0761,0.082,0.0851,0.0876,0.0892,0.0878,0.0859,0.0734,0.0664,0.0467,0.0333,0.0201,0.0176,0.014,0.0138,0.0142,0.0256,0.028,0.0169,0,0,0,0,0,0.0562,0.0577,0.0623,0.0689,0.0753,0.0803,0.0864,0.0892,0.0918,0.0885,0.0877,0.0761,0.0562,0.0481,0.0345,0.0304,0.0148,0.0139,0.0105,0.0006,0.0012,0.0133,0,0,0,0,0,0,0.0546,0.0577,0.0607,0.0675,0.0727,0.0806,0.0856,0.088,0.0869,0.087,0.077,0.0723,0.0533,0.0639,0.0341,0.0301,0.026,0.005,0.0047,0.0003,0.0008,0.0012,0.0139,0,0,0,0,0]}]]